Time,TemperatureF,DewpointF,PressureIn,WindDirection,WindDirectionDegrees,WindSpeedMPH,WindSpeedGustMPH,Humidity,HourlyPrecipIn,Conditions,Clouds,dailyrainin,SoftwareType,DateUTC
2013-01-19 00:03:00,35.0,25.0,30.08,West,270,7.0,12.0,67,0.00,,,0.00,,2013-01-19 05:03:00,
2013-01-19 00:12:00,35.0,25.0,30.08,West,270,7.0,12.0,67,0.00,,,0.00,,2013-01-19 05:12:00,
2013-01-19 00:23:00,35.0,26.0,30.08,WSW,247,7.0,10.0,68,0.00,,,0.00,,2013-01-19 05:23:00,
2013-01-19 00:33:00,35.0,26.0,30.08,SW,225,8.0,11.0,69,0.00,,,0.00,,2013-01-19 05:33:00,
2013-01-19 00:43:00,35.0,26.0,30.08,SW,225,8.0,11.0,69,0.00,,,0.00,,2013-01-19 05:43:00,
2013-01-19 00:52:00,35.0,26.0,30.08,SW,225,8.0,14.0,69,0.00,,,0.00,,2013-01-19 05:52:00,
2013-01-19 01:03:00,35.0,26.0,30.07,WSW,247,6.0,9.0,70,0.00,,,0.00,,2013-01-19 06:03:00,
2013-01-19 01:12:00,35.0,26.0,30.07,WSW,247,6.0,9.0,70,0.00,,,0.00,,2013-01-19 06:12:00,
2013-01-19 01:22:00,35.0,26.0,30.09,SW,225,0.0,10.0,70,0.00,,,0.00,,2013-01-19 06:22:00,
2013-01-19 01:32:00,36.0,27.0,30.07,WSW,247,8.0,8.0,69,0.00,,,0.00,,2013-01-19 06:32:00,
2013-01-19 01:43:00,36.0,27.0,30.07,WSW,247,8.0,8.0,69,0.00,,,0.00,,2013-01-19 06:43:00,
2013-01-19 01:52:00,36.0,27.0,30.06,SSW,202,9.0,10.0,69,0.00,,,0.00,,2013-01-19 06:52:00,
2013-01-19 02:02:00,36.0,27.0,30.06,WSW,247,8.0,15.0,69,0.00,,,0.00,,2013-01-19 07:02:00,
2013-01-19 02:12:00,36.0,27.0,30.06,WSW,247,8.0,15.0,69,0.00,,,0.00,,2013-01-19 07:12:00,
2013-01-19 02:22:00,36.0,27.0,30.07,West,270,9.0,12.0,69,0.00,,,0.00,,2013-01-19 07:22:00,
2013-01-19 02:33:00,36.0,27.0,30.06,WSW,247,7.0,12.0,69,0.00,,,0.00,,2013-01-19 07:33:00,
2013-01-19 02:43:00,36.0,27.0,30.06,WSW,247,7.0,12.0,69,0.00,,,0.00,,2013-01-19 07:43:00,
2013-01-19 02:52:00,37.0,28.0,30.07,WSW,247,9.0,14.0,69,0.00,,,0.00,,2013-01-19 07:52:00,
2013-01-19 03:02:00,36.0,27.0,30.08,WSW,247,7.0,11.0,70,0.00,,,0.00,,2013-01-19 08:02:00,
2013-01-19 03:12:00,36.0,27.0,30.08,WSW,247,7.0,11.0,70,0.00,,,0.00,,2013-01-19 08:12:00,
2013-01-19 03:22:00,36.0,27.0,30.06,SSW,202,8.0,15.0,69,0.00,,,0.00,,2013-01-19 08:22:00,
2013-01-19 03:32:00,37.0,28.0,30.07,WSW,247,6.0,7.0,69,0.00,,,0.00,,2013-01-19 08:32:00,
2013-01-19 03:43:00,37.0,28.0,30.07,WSW,247,6.0,7.0,69,0.00,,,0.00,,2013-01-19 08:43:00,
2013-01-19 03:52:00,37.0,28.0,30.06,WSW,247,9.0,10.0,69,0.00,,,0.00,,2013-01-19 08:52:00,
2013-01-19 04:02:00,37.0,28.0,30.07,SW,225,9.0,19.0,70,0.00,,,0.00,,2013-01-19 09:02:00,
2013-01-19 04:12:00,37.0,28.0,30.07,SW,225,9.0,19.0,70,0.00,,,0.00,,2013-01-19 09:12:00,
2013-01-19 04:23:00,37.0,28.0,30.05,WSW,247,11.0,17.0,70,0.00,,,0.00,,2013-01-19 09:23:00,
2013-01-19 04:33:00,36.0,28.0,30.05,SW,225,7.0,9.0,71,0.00,,,0.00,,2013-01-19 09:33:00,
2013-01-19 04:42:00,36.0,28.0,30.05,SW,225,7.0,9.0,71,0.00,,,0.00,,2013-01-19 09:42:00,
2013-01-19 04:52:00,36.0,28.0,30.05,WSW,247,7.0,7.0,71,0.00,,,0.00,,2013-01-19 09:52:00,
2013-01-19 05:02:00,36.0,28.0,30.05,SW,225,8.0,8.0,72,0.00,,,0.00,,2013-01-19 10:02:00,
2013-01-19 05:12:00,36.0,28.0,30.05,SW,225,8.0,8.0,72,0.00,,,0.00,,2013-01-19 10:12:00,
2013-01-19 05:22:00,36.0,28.0,30.06,SW,225,7.0,11.0,72,0.00,,,0.00,,2013-01-19 10:22:00,
2013-01-19 05:32:00,36.0,28.0,30.05,SW,225,8.0,13.0,73,0.00,,,0.00,,2013-01-19 10:32:00,
2013-01-19 05:43:00,36.0,28.0,30.05,SW,225,8.0,13.0,73,0.00,,,0.00,,2013-01-19 10:43:00,
2013-01-19 05:52:00,36.0,29.0,30.05,SW,225,8.0,13.0,74,0.00,,,0.00,,2013-01-19 10:52:00,
2013-01-19 06:03:00,36.0,29.0,30.06,West,270,7.0,12.0,75,0.00,,,0.00,,2013-01-19 11:03:00,
2013-01-19 06:12:00,36.0,29.0,30.06,West,270,7.0,12.0,75,0.00,,,0.00,,2013-01-19 11:12:00,
2013-01-19 07:48:00,35.0,29.0,30.05,SW,225,6.0,9.0,78,0.00,,,0.00,,2013-01-19 12:48:00,
2013-01-19 07:53:00,35.0,29.0,30.05,WSW,247,7.0,12.0,79,0.00,,,0.00,,2013-01-19 12:53:00,
2013-01-19 08:03:00,35.0,29.0,30.05,WSW,247,4.0,10.0,80,0.00,,,0.00,,2013-01-19 13:03:00,
2013-01-19 08:12:00,35.0,29.0,30.05,WSW,247,4.0,10.0,80,0.00,,,0.00,,2013-01-19 13:12:00,
2013-01-19 08:22:00,34.0,29.0,30.05,SW,225,5.0,9.0,81,0.00,,,0.00,,2013-01-19 13:22:00,
2013-01-19 08:33:00,35.0,30.0,30.05,SW,225,6.0,12.0,81,0.00,,,0.00,,2013-01-19 13:33:00,
2013-01-19 08:43:00,35.0,30.0,30.05,SW,225,6.0,12.0,81,0.00,,,0.00,,2013-01-19 13:43:00,
2013-01-19 08:53:00,35.0,30.0,30.05,WSW,247,5.0,12.0,81,0.00,,,0.00,,2013-01-19 13:53:00,
2013-01-19 09:03:00,36.0,30.0,30.03,West,270,6.0,9.0,78,0.00,,,0.00,,2013-01-19 14:03:00,
2013-01-19 09:12:00,36.0,30.0,30.03,West,270,6.0,9.0,78,0.00,,,0.00,,2013-01-19 14:12:00,
2013-01-19 09:23:00,37.0,30.0,30.03,WSW,247,6.0,7.0,76,0.00,,,0.00,,2013-01-19 14:23:00,
2013-01-19 09:34:00,38.0,30.0,30.03,SW,225,6.0,10.0,73,0.00,,,0.00,,2013-01-19 14:34:00,
2013-01-19 09:43:00,38.0,30.0,30.03,SW,225,6.0,10.0,73,0.00,,,0.00,,2013-01-19 14:43:00,
2013-01-19 09:53:00,38.0,29.0,30.02,WSW,247,6.0,6.0,71,0.00,,,0.00,,2013-01-19 14:53:00,
2013-01-19 10:04:00,-999.0,-99.9,-100.00,North,0,0.0,7.0,-999,0.00,,,-99.99,,2013-01-19 15:04:00,
2013-01-19 10:13:00,-999.0,-99.9,-100.00,North,0,0.0,7.0,-999,0.00,,,-99.99,,2013-01-19 15:13:00,
2013-01-19 10:23:00,41.0,31.0,30.02,SW,225,2.0,9.0,67,0.00,,,0.00,,2013-01-19 15:23:00,
2013-01-19 10:33:00,41.0,30.0,30.01,SSW,202,6.0,13.0,65,0.00,,,0.00,,2013-01-19 15:33:00,
2013-01-19 10:43:00,41.0,30.0,30.01,SSW,202,6.0,13.0,65,0.00,,,0.00,,2013-01-19 15:43:00,
2013-01-19 10:53:00,42.0,31.0,30.01,SSW,202,0.0,10.0,64,0.00,,,0.00,,2013-01-19 15:53:00,
2013-01-19 11:03:00,42.0,31.0,30.02,SW,225,11.0,11.0,64,-99.99,,,0.00,,2013-01-19 16:03:00,
2013-01-19 11:13:00,42.0,31.0,30.02,SW,225,11.0,11.0,64,-99.99,,,0.00,,2013-01-19 16:13:00,
2013-01-19 11:23:00,42.0,30.0,30.00,West,270,12.0,15.0,63,0.00,,,0.00,,2013-01-19 16:23:00,
2013-01-19 11:33:00,43.0,31.0,30.00,WSW,247,7.0,14.0,62,0.00,,,0.00,,2013-01-19 16:33:00,
2013-01-19 11:43:00,43.0,31.0,30.00,WSW,247,7.0,14.0,62,0.00,,,0.00,,2013-01-19 16:43:00,
2013-01-19 11:53:00,43.0,31.0,29.98,WSW,247,9.0,11.0,62,0.00,,,0.00,,2013-01-19 16:53:00,
2013-01-19 12:03:00,43.0,31.0,29.98,WSW,247,0.0,13.0,62,0.00,,,0.00,,2013-01-19 17:03:00,
2013-01-19 12:20:00,43.0,31.0,29.98,WSW,247,0.0,13.0,62,0.00,,,0.00,,2013-01-19 17:20:00,
2013-01-19 12:29:00,44.0,32.0,29.96,WSW,247,9.0,10.0,62,0.00,,,0.00,,2013-01-19 17:29:00,
2013-01-19 12:35:00,45.0,32.0,29.95,SW,225,7.0,8.0,61,0.00,,,0.00,,2013-01-19 17:35:00,
2013-01-19 12:48:00,45.0,32.0,29.95,SW,225,7.0,8.0,61,0.00,,,0.00,,2013-01-19 17:48:00,
2013-01-19 12:53:00,46.0,33.0,29.94,SW,225,11.0,11.0,61,0.00,,,0.00,,2013-01-19 17:53:00,
2013-01-19 13:12:00,47.0,34.0,29.93,WSW,247,0.0,10.0,60,0.00,,,0.00,,2013-01-19 18:12:00,
2013-01-19 13:27:00,46.0,33.0,29.91,SW,225,0.0,15.0,60,0.00,,,0.00,,2013-01-19 18:27:00,
2013-01-19 13:35:00,47.0,33.0,29.89,South,180,8.0,13.0,59,0.00,,,0.00,,2013-01-19 18:35:00,
2013-01-19 13:45:00,47.0,33.0,29.89,South,180,8.0,13.0,59,0.00,,,0.00,,2013-01-19 18:45:00,
2013-01-19 13:55:00,47.0,34.0,29.88,SW,225,0.0,8.0,60,0.00,,,0.00,,2013-01-19 18:55:00,
2013-01-19 14:39:00,47.0,34.0,29.85,SW,225,11.0,11.0,60,0.00,,,0.00,,2013-01-19 19:39:00,
2013-01-19 14:54:00,47.0,34.0,29.85,SW,225,11.0,19.0,60,0.00,,,0.00,,2013-01-19 19:54:00,
2013-01-19 15:10:00,47.0,34.0,29.85,WSW,247,11.0,11.0,61,0.00,,,0.00,,2013-01-19 20:10:00,
2013-01-19 15:19:00,47.0,34.0,29.85,WSW,247,11.0,11.0,61,0.00,,,0.00,,2013-01-19 20:19:00,
2013-01-19 15:25:00,47.0,35.0,29.85,SW,225,10.0,11.0,62,0.00,,,0.00,,2013-01-19 20:25:00,
2013-01-19 15:38:00,47.0,34.0,29.85,SW,225,9.0,11.0,61,0.00,,,0.00,,2013-01-19 20:38:00,
2013-01-19 15:48:00,47.0,34.0,29.85,SW,225,9.0,11.0,61,0.00,,,0.00,,2013-01-19 20:48:00,
2013-01-19 16:07:00,47.0,34.0,29.82,WSW,247,10.0,19.0,61,0.00,,,0.00,,2013-01-19 21:07:00,
2013-01-19 16:44:00,46.0,35.0,29.83,West,270,10.0,23.0,64,0.00,,,0.00,,2013-01-19 21:44:00,
2013-01-19 16:50:00,46.0,35.0,29.83,West,270,10.0,23.0,64,0.00,,,0.00,,2013-01-19 21:50:00,
2013-01-19 17:00:00,46.0,35.0,29.84,SW,225,8.0,13.0,65,0.00,,,0.00,,2013-01-19 22:00:00,
2013-01-19 17:14:00,46.0,35.0,29.84,WSW,247,10.0,15.0,66,0.00,,,0.00,,2013-01-19 22:14:00,
2013-01-19 17:27:00,46.0,35.0,29.84,SW,225,5.0,11.0,66,0.00,,,0.00,,2013-01-19 22:27:00,
2013-01-19 17:35:00,45.0,35.0,29.83,SW,225,7.0,10.0,67,0.00,,,0.00,,2013-01-19 22:35:00,
2013-01-19 17:47:00,45.0,35.0,29.83,SW,225,7.0,10.0,67,0.00,,,0.00,,2013-01-19 22:47:00,
2013-01-19 17:54:00,45.0,35.0,29.83,SW,225,7.0,10.0,68,0.00,,,0.00,,2013-01-19 22:54:00,
2013-01-19 18:13:00,45.0,35.0,29.84,WSW,247,6.0,13.0,69,0.00,,,0.00,,2013-01-19 23:13:00,
2013-01-19 18:25:00,44.0,35.0,29.82,SW,225,7.0,10.0,71,0.00,,,0.00,,2013-01-19 23:25:00,
2013-01-19 18:34:00,44.0,36.0,29.82,West,270,7.0,13.0,72,0.00,,,0.00,,2013-01-19 23:34:00,
2013-01-19 18:46:00,44.0,36.0,29.82,West,270,7.0,13.0,72,0.00,,,0.00,,2013-01-19 23:46:00,
2013-01-19 18:59:00,43.0,35.0,29.85,WSW,247,5.0,8.0,74,0.00,,,0.00,,2013-01-19 23:59:00,
2013-01-19 19:09:00,43.0,36.0,29.83,SW,225,7.0,14.0,75,0.00,,,0.00,,2013-01-20 00:09:00,
2013-01-19 19:15:00,43.0,36.0,29.83,SW,225,7.0,14.0,75,0.00,,,0.00,,2013-01-20 00:15:00,
2013-01-19 19:25:00,43.0,36.0,29.85,SW,225,6.0,10.0,76,0.00,,,0.00,,2013-01-20 00:25:00,
2013-01-19 19:35:00,43.0,36.0,29.85,SSW,202,7.0,14.0,77,0.00,,,0.00,,2013-01-20 00:35:00,
2013-01-19 19:46:00,43.0,36.0,29.85,SSW,202,7.0,14.0,77,0.00,,,0.00,,2013-01-20 00:46:00,
2013-01-19 19:54:00,42.0,35.0,29.83,SW,225,6.0,10.0,76,0.00,,,0.00,,2013-01-20 00:54:00,
2013-01-19 20:04:00,42.0,36.0,29.83,WSW,247,6.0,7.0,78,0.00,,,0.00,,2013-01-20 01:04:00,
2013-01-19 20:20:00,42.0,36.0,29.83,WSW,247,6.0,7.0,78,0.00,,,0.00,,2013-01-20 01:20:00,
2013-01-19 20:27:00,42.0,36.0,29.82,West,270,7.0,11.0,79,0.00,,,0.00,,2013-01-20 01:27:00,
2013-01-19 20:37:00,42.0,36.0,29.83,SW,225,9.0,16.0,80,0.00,,,0.00,,2013-01-20 01:37:00,
2013-01-19 20:48:00,42.0,36.0,29.83,SW,225,9.0,16.0,80,0.00,,,0.00,,2013-01-20 01:48:00,
2013-01-19 20:58:00,42.0,36.0,29.81,WSW,247,8.0,14.0,80,0.00,,,0.00,,2013-01-20 01:58:00,
2013-01-19 21:08:00,41.0,36.0,29.83,WSW,247,7.0,11.0,81,0.00,,,0.00,,2013-01-20 02:08:00,
2013-01-19 21:15:00,41.0,36.0,29.83,WSW,247,7.0,11.0,81,0.00,,,0.00,,2013-01-20 02:15:00,
2013-01-19 21:26:00,41.0,36.0,29.81,SW,225,8.0,12.0,82,0.00,,,0.00,,2013-01-20 02:26:00,
2013-01-19 21:44:00,41.0,36.0,29.80,West,270,8.0,12.0,82,0.00,,,0.00,,2013-01-20 02:44:00,
2013-01-19 21:55:00,41.0,36.0,29.80,WSW,247,9.0,14.0,83,0.00,,,0.00,,2013-01-20 02:55:00,
2013-01-19 22:08:00,41.0,37.0,29.80,West,270,8.0,9.0,85,0.00,,,0.00,,2013-01-20 03:08:00,
2013-01-19 22:15:00,41.0,37.0,29.80,West,270,8.0,9.0,85,0.00,,,0.00,,2013-01-20 03:15:00,
2013-01-19 22:25:00,41.0,37.0,29.79,SW,225,9.0,13.0,85,0.00,,,0.00,,2013-01-20 03:25:00,
2013-01-19 22:38:00,41.0,37.0,29.79,WSW,247,9.0,15.0,86,0.00,,,0.00,,2013-01-20 03:38:00,
2013-01-19 22:45:00,41.0,37.0,29.79,WSW,247,9.0,15.0,86,0.00,,,0.00,,2013-01-20 03:45:00,
2013-01-19 22:54:00,41.0,37.0,29.79,WSW,247,4.0,7.0,87,0.00,,,0.00,,2013-01-20 03:54:00,
2013-01-19 23:05:00,41.0,37.0,29.79,WSW,247,6.0,12.0,87,0.00,,,0.00,,2013-01-20 04:05:00,
2013-01-19 23:15:00,41.0,37.0,29.79,WSW,247,6.0,12.0,87,0.00,,,0.00,,2013-01-20 04:15:00,
2013-01-19 23:26:00,41.0,37.0,29.78,WSW,247,7.0,11.0,86,0.00,,,0.00,,2013-01-20 04:26:00,
2013-01-19 23:36:00,42.0,37.0,29.78,WSW,247,11.0,16.0,81,0.00,,,0.00,,2013-01-20 04:36:00,
2013-01-19 23:44:00,42.0,37.0,29.78,WSW,247,11.0,16.0,81,0.00,,,0.00,,2013-01-20 04:44:00,
2013-01-19 23:54:00,42.0,37.0,29.79,WSW,247,10.0,15.0,81,0.00,,,0.00,,2013-01-20 04:54:00,